This is the latest recevied weather packets stored in our database for station/object K5OLV. If no packets are shown the sender has not sent any weather packets the latest 10 day(s).
| Time | Temp. | Humidity | Pressure | Rain* | Wind** | Luminosity | Snow |
|---|---|---|---|---|---|---|---|
| 1787939696 | 28.89° C | 72% | 1016.4 hPa | 0 mm | - | 728 W/m² | - |
| 1787939390 | 28.33° C | 68% | 1016.4 hPa | 0 mm | - | 713 W/m² | - |
| 1787939085 | 28.89° C | 69% | 1016.5 hPa | 0 mm | - | 728 W/m² | - |
| 1787938784 | 28.33° C | 70% | 1016.3 hPa | 0 mm | - | 735 W/m² | - |
| 1787938480 | 27.78° C | 71% | 1016.3 hPa | 0 mm | - | 730 W/m² | - |
| 1787938176 | 28.89° C | 72% | 1016.5 hPa | 0 mm | - | 749 W/m² | - |
| 1787937876 | 29.44° C | 70% | 1016.4 hPa | 0 mm | - | 767 W/m² | - |
| 1787937572 | 28.89° C | 71% | 1016.5 hPa | 0 mm | - | 734 W/m² | - |
| 1787937267 | 28.89° C | 71% | 1016.4 hPa | 0 mm | - | 711 W/m² | - |
| 1787936963 | 27.78° C | 70% | 1016.6 hPa | 0 mm | - | 679 W/m² | - |
| 1787936662 | 27.78° C | 70% | 1016.5 hPa | 0 mm | - | 673 W/m² | - |
| 1787936357 | 27.78° C | 69% | 1016.4 hPa | 0 mm | - | 683 W/m² | - |
| 1787936052 | 28.33° C | 68% | 1016.5 hPa | 0 mm | - | 704 W/m² | - |
| 1787935747 | 28.89° C | 69% | 1016.5 hPa | 0 mm | - | 731 W/m² | - |
| 1787935443 | 27.78° C | 68% | 1016.8 hPa | 0 mm | - | 721 W/m² | - |
| 1787935139 | 27.78° C | 70% | 1016.7 hPa | 0 mm | - | 747 W/m² | - |
| 1787934841 | 28.33° C | 70% | 1016.5 hPa | 0 mm | - | 736 W/m² | - |
| 1787934533 | 27.78° C | 69% | 1016.7 hPa | 0 mm | - | 718 W/m² | - |
| 1787934228 | 27.78° C | 73% | 1016.6 hPa | 0 mm | - | 711 W/m² | - |
| 1787933927 | 27.22° C | 76% | 1016.5 hPa | 0 mm | - | 710 W/m² | - |
| 1787933627 | 27.22° C | 76% | 1016.7 hPa | 0 mm | - | 733 W/m² | - |
| 1787933322 | 26.67° C | 76% | 1016.8 hPa | 0 mm | - | 732 W/m² | - |
| 1787933016 | 27.78° C | 77% | 1016.9 hPa | 0 mm | - | 729 W/m² | - |
| 1787932715 | 26.67° C | 78% | 1016.7 hPa | 0 mm | - | 750 W/m² | - |
| 1787932415 | 26.11° C | 81% | 1016.9 hPa | 0 mm | - | 729 W/m² | - |
* Rain latest hour (hover to see other rain measurements)
** Current wind speed in m/s (hover to see current wind gust speed)